DW7733 Weather Reports


Display with metric or nautical units.
time (UTC)temp
F
wind
direction
speed
MPH
gust
MPH
rain 1hr
in
rain 24hr
in
rain mn
in
humidity
%
barometer
mb
20260902174545 81 231 1.0 3.0 0.00 0.00 0.00 83 1011.4
20260902173043 80 262 1.0 3.0 0.00 0.00 0.00 84 1012.0
20260902171542 80 248 3.0 4.0 0.00 0.00 0.00 83 1012.4
20260902170041 79 242 5.0 6.0 0.00 0.00 0.00 85 1012.8
20260902164541 77 237 4.0 5.0 0.00 0.00 0.00 91 1013.0
20260902163040 78 271 1.0 3.0 0.00 0.00 0.00 89 1013.0
20260902161550 78 238 2.0 4.0 0.00 0.00 0.00 89 1012.8
20260902160038 78 238 4.0 5.0 0.00 0.00 0.00 89 1012.9
20260902154536 79 242 5.0 8.0 0.00 0.00 0.00 88 1012.7
20260902153036 79 241 5.0 6.0 0.00 0.00 0.00 87 1012.8
20260902151537 80 263 3.0 6.0 0.00 0.00 0.00 86 1012.6
20260902150032 79 248 5.0 8.0 0.00 0.00 0.00 88 1012.3
20260902144537 78 243 4.0 7.0 0.00 0.00 0.00 92 1012.7
20260902143031 78 235 3.0 7.0 0.00 0.00 0.00 90 1012.6
20260902141530 79 245 2.0 7.0 0.00 0.00 0.00 90 1012.7
20260902140027 79 231 0.0 2.0 0.00 0.00 0.00 91 1012.6
20260902134534 78 233 0.0 3.0 0.00 0.00 0.00 92 1012.5
20260902133023 77 247 0.0 1.0 0.00 0.00 0.00 92 1012.6
20260902131518 76 142 0.0 1.0 0.00 0.00 0.00 92 1012.4
20260902130016 75 148 0.0 2.0 0.00 0.00 0.00 92 1012.3
20260902124517 75 129 0.0 3.0 0.00 0.00 0.00 92 1012.3
20260902123015 75 147 0.0 2.0 0.00 0.00 0.00 92 1012.3
20260902121514 74 141 1.0 3.0 0.00 0.00 0.00 91 1012.2
20260902120014 74 140 0.0 2.0 0.00 0.00 0.00 91 1012.1
20260902114515 74 134 1.0 2.0 0.00 0.00 0.00 92 1012.3
20260902113030 74 150 0.0 2.0 0.00 0.00 0.00 92 1012.6
20260902111519 74 138 0.0 2.0 0.00 0.00 0.00 93 1012.1
20260902110011 74 253 3.0 6.0 0.00 0.00 0.00 92 1012.1
20260902104510 74 236 2.0 4.0 0.00 0.00 0.00 92 1011.8
20260902103015 75 224 2.0 6.0 0.00 0.00 0.00 92 1011.6
20260902101504 75 239 1.0 5.0 0.00 0.00 0.00 92 1011.4
20260902100005 75 217 2.0 4.0 0.00 0.00 0.00 92 1011.5
20260902094501 75 250 3.0 5.0 0.00 0.00 0.00 93 1011.7
20260902093059 74 203 1.0 5.0 0.00 0.00 0.00 88 1011.6
20260902091559 73 147 1.0 4.0 0.00 0.00 0.00 87 1011.6
20260902090059 73 139 0.0 2.0 0.00 0.00 0.00 88 1011.7
20260902084602 73 187 0.0 3.0 0.00 0.00 0.00 83 1011.8
20260902083059 73 165 1.0 4.0 0.00 0.00 0.00 79 1011.8
20260902081602 73 143 1.0 2.0 0.00 0.00 0.00 77 1011.7
20260902080053 73 141 1.0 3.0 0.00 0.00 0.00 77 1011.7
20260902074553 73 132 1.0 2.0 0.00 0.00 0.00 76 1011.7
20260902073056 73 132 1.0 2.0 0.00 0.00 0.00 75 1011.6
20260902071549 73 126 1.0 3.0 0.00 0.00 0.00 74 1011.7
20260902070048 73 147 1.0 2.0 0.00 0.00 0.00 74 1011.8
20260902064552 73 139 1.0 3.0 0.00 0.00 0.00 73 1011.9
20260902063051 74 137 1.0 2.0 0.00 0.00 0.00 73 1011.9
20260902061558 74 134 0.0 2.0 0.00 0.00 0.00 74 1012.1
20260902060042 74 149 1.0 2.0 0.00 0.00 0.00 75 1012.1
20260902054548 74 141 1.0 3.0 0.00 0.00 0.00 75 1012.3
20260902053046 74 153 1.0 3.0 0.00 0.00 0.00 74 1012.4
20260902051539 74 143 1.0 3.0 0.00 0.00 0.00 76 1012.2
20260902050037 74 143 1.0 3.0 0.00 0.00 0.00 76 1012.5
20260902044535 74 136 1.0 3.0 0.00 0.00 0.00 77 1012.4
20260902043033 75 152 0.0 2.0 0.00 0.00 0.00 78 1012.1
20260902041530 75 110 1.0 2.0 0.00 0.00 0.00 80 1012.2
20260902040032 75 140 0.0 2.0 0.00 0.00 0.00 79 1012.1
20260902034527 75 140 1.0 2.0 0.00 0.00 0.00 79 1012.0
20260902033027 75 135 0.0 0.0 0.00 0.00 0.00 79 1012.1
20260902031525 75 135 0.0 0.0 0.00 0.00 0.00 79 1012.1
20260902030025 75 135 0.0 0.0 0.00 0.00 0.00 80 1012.1
20260902024523 75 135 0.0 0.0 0.00 0.00 0.00 81 1012.1
20260902023027 75 135 0.0 1.0 0.00 0.00 0.00 83 1012.1
20260902021522 75 134 0.0 1.0 0.00 0.00 0.00 85 1012.1
20260902020025 76 134 0.0 1.0 0.00 0.00 0.00 87 1011.9
20260902014533 76 134 0.0 1.0 0.00 0.00 0.00 89 1012.0
20260902013022 76 132 0.0 1.0 0.00 0.00 0.00 90 1012.0
20260902011538 77 132 0.0 1.0 0.00 0.00 0.00 91 1011.9
20260902010020 77 140 0.0 0.0 0.00 0.00 0.00 92 1011.7
20260902004520 78 138 0.0 1.0 0.00 0.00 0.00 92 1011.5
20260902003020 78 131 0.0 1.0 0.00 0.00 0.00 92 1011.3
20260902001520 79 131 0.0 0.0 0.00 0.00 0.00 91 1011.4
20260902000018 79 131 0.0 1.0 0.00 0.00 0.00 90 1011.7
20260901234517 80 63 0.0 0.0 0.00 0.00 0.00 89 1011.7
20260901233017 79 50 0.0 4.0 0.00 0.00 0.00 90 1011.8
20260901231516 80 50 3.0 5.0 0.00 0.00 0.00 87 1011.8
20260901230016 81 46 4.0 5.0 0.00 0.00 0.00 86 1012.0
20260901224515 81 47 3.0 4.0 0.00 0.00 0.00 85 1012.0
20260901223017 80 47 4.0 5.0 0.00 0.00 0.00 85 1012.0
20260901221514 81 47 3.0 3.0 0.00 0.00 0.00 84 1012.0
20260901220013 81 53 2.0 3.0 0.00 0.00 0.00 84 1012.0
20260901214533 81 37 2.0 3.0 0.00 0.00 0.00 81 1012.1
20260901213012 81 38 0.0 2.0 0.00 0.00 0.00 84 1012.1
20260901211511 80 36 1.0 3.0 0.00 0.00 0.00 84 1012.2
20260901210010 81 33 1.0 2.0 0.00 0.00 0.00 84 1012.3
20260901204508 81 36 1.0 1.0 0.00 0.00 0.00 83 1012.2
20260901203006 80 32 0.0 1.0 0.00 0.00 0.00 88 1012.0
20260901201601 77 34 1.0 3.0 0.00 0.00 0.00 91 1012.2
20260901200110 76 39 2.0 3.0 0.00 0.00 0.00 92 1012.0
20260901194557 75 37 3.0 4.0 0.00 0.01 0.00 92 1012.1
20260901193055 75 32 3.0 4.0 0.00 0.01 0.00 92 1012.4
20260901191556 74 37 5.0 6.0 0.00 0.01 0.00 93 1012.7
20260901190055 74 37 3.0 4.0 0.00 0.01 0.00 93 1012.8
20260901184604 74 33 4.0 4.0 0.00 0.07 0.00 93 1013.0
20260901183105 74 37 5.0 6.0 0.00 0.07 0.00 92 1013.1
20260901181550 74 37 3.0 4.0 0.00 0.07 0.00 92 1013.0
20260901180049 75 22 3.0 4.0 0.00 0.07 0.00 91 1013.1